User: anonymous   Login
Location: Clay (historical)
(35.1476°N, 89.8179°W)
Time: 20:25:05
(UTC+00:00)
Language:

Cosmos 1356 Rocket - Orbit

View from above orbital plane
View from above orbital plane
View from above satellite
View from above satellite

Ground track
Ground track

The orbit is defined by the following mean orbital elements,

1 13154U          26106.22470249 +.00000000 +00000-0 +54415-4 0 00005
2 13154  81.1518 172.6711 0027941 197.4659 162.5609 15.10278273    04
Epoch (UTC): 16 April 2026 05:23:34
Eccentricity: 0.0027941
inclination: 81.1518°
perigee height: 516 km
apogee height: 555 km
right ascension of ascending node: 172.6711°
argument of perigee: 197.4659°
revolutions per day: 15.10278273
mean anomaly at epoch: 162.5609°

The dashed part of the orbit path shows where the satellite is in the earth's shadow,  

DLR